Weather in Yuksary

Russia / Mari El Republic     56°19′00″N   47°02′08″E
В апреле 2022 года жителям России запретили посещать сайт meteo.paraplan.net по решению Генеральной прокуратуры. Аудитория сайта уменьшилась в 10 раз. Владельцы сайта не видят смысла в поддержке погодного сервера в таких условиях. Сайт будет закрыт в октябре.
temp.,
°C
wind,
m/s
gust,
m/s
humid.,
%
clouds,
%
prec.,
mm/h
press.,
hPa
HPBL,
m
3 october, mon
mon300:00+14s41196100 0.5 1010415
03:00+14sse41193100 0.6 1009362
06:00+14sse41395100 2.0 1009449
09:00+16sse5148299 2.8 1010605
12:00+17sse71660100 0.0 1011902
15:00+18sse7155396 0.0 10111013
18:00+15sse71453100 0.0 10131028
21:00+15sse61354100 0.0 10151175
4 october, tue
tue400:00+12s61374100 0.2 1017813
03:00+11sse61279100 0.4 1018701
06:00+11sse5118636 0.0 1019468
09:00+13sse488153 0.0 1020575
12:00+16sse5761100 0.0 10201314
15:00+15sse5871100 0.1 1021729
18:00+12sse61365100 0.0 1021686
21:00+10sse61483100 0.3 1021693
5 october, wed
wed500:00+10sse51383100 0.1 1021733
03:00+10sse51377100 0.2 1020657
06:00+10sse51274100 0.3 1020604
09:00+9sse51183100 0.7 1019483
12:00+13sse51071100 0.1 1018831
15:00+12s3978100 1.1 1017502
18:00+11sse5118586 0.9 1017501
21:00+9s269553 1.8 1016132
6 october, thu
thu600:00+9ssw3987100 0.4 1015914
03:00+8wsw3787100 1.6 10151103
06:00+7wsw388796 0.7 1015576
09:00+7wsw4683100 1.1 1015850
12:00+6wsw578793 0.3 1015817
15:00+6wsw3686100 0.5 1015819
18:00+7sw3786100 0.0 1016307
21:00+7sw378199 0.0 1015216
7 october, fri
fri700:00+5sw378292 0.0 1014204
03:00+4ssw389198 0.0 1013202
06:00+6s41191100 0.8 1011442
09:00+8wsw41197100 1.8 1010606
12:00+11wnw5977100 0.1 10111105
15:00+10w51081100 0.2 10121025
18:00+9w61279100 0.1 10131232
21:00+9w6147998 0.2 10131038